[[{"header":{"parameterUnit":"m.s-1","parameterCategory":1,"la1":30.2991,"la2":30.254,"lo1":-89.0895,"lo2":-89.0444,"dy":0.0017,"dx":0.0017,"nx":28,"ny":28,"refTime":"2024-04-13T03:00:00:Z","depth":0,"parameterNumber":2,"parameterNumberName":"U-component_of_WINDS"},"data":[0,0,0,0,0,0,0,0,0,0,0,0,0,0,0,0,0,0,0,0,0,0,0,0,0,0,0,0,0,0,0,0,0,0,0,0,0,0,0,0,0,0,0,0,0,0,0,0,0,0,0,0,0,0,0,0,0,0,-1.7099,-1.7099,0,-1.7061,-1.706,-1.706,-1.6975,-1.6973,-1.6972,-1.697,-1.6933,-1.6934,-1.6935,0,0,0,0,0,0,0,0,0,0,0,0,0,-1.7105,-1.7105,-1.7099,-1.7099,-1.7098,-1.7061,-1.706,-1.706,-1.6975,-1.6973,-1.6971,-1.6969,-1.6933,-1.6934,-1.6935,0,0,0,0,0,0,0,0,0,0,0,0,0,-1.7088,-1.7106,-1.7099,-1.7052,-1.7047,-1.7061,-1.706,-1.7059,-1.6976,-1.6973,-1.6971,-1.6968,-1.6933,-1.6934,-1.6935,-1.6993,0,0,-1.6938,-1.6938,0,0,0,0,0,0,0,0,-1.7089,-1.7088,-1.7059,-1.7055,-1.705,-1.702,-1.7049,-1.7037,-1.6976,-1.7003,-1.697,-1.6967,-1.6965,-1.6963,-1.6961,-1.6991,-1.6989,-1.6938,-1.6939,-1.6939,-1.6939,0,0,0,0,0,0,0,-1.7091,-1.7089,-1.7084,-1.7059,-1.7053,-1.7034,-1.7029,-1.7046,-1.6999,-1.7,-1.6994,-1.6991,-1.6962,-1.6961,-1.696,-1.6989,-1.6938,-1.6939,-1.6939,-1.694,-1.7068,-1.707,0,0,0,0,0,0,-1.7098,-1.7091,-1.7085,-1.7083,-1.7063,-1.7036,-1.703,-1.7032,-1.6998,-1.6991,-1.6993,-1.6987,-1.696,-1.6959,-1.6958,-1.7025,-1.6939,-1.694,-1.694,-1.7065,-1.7068,-1.7071,0,0,0,0,0,0,-1.7099,-1.7098,-1.7087,-1.7085,-1.7082,-1.7038,-1.7042,-1.7033,-1.7032,-1.6993,-1.6984,-1.7,-1.6958,-1.6957,-1.6985,-1.7023,-1.694,-1.6941,-1.7061,-1.7066,-1.707,-1.7159,0,0,0,0,0,0,-1.7099,-1.7099,-1.7119,-1.7086,-1.7083,-1.7113,-1.7044,-1.7034,-1.7033,-1.7025,-1.6997,-1.699,-1.6956,-1.6984,-1.6986,-1.7023,-1.6942,-1.7058,-1.7063,-1.7068,-1.7153,-1.7166,-1.7177,0,0,0,0,0,-1.71,-1.7146,-1.7121,-1.712,-1.7107,-1.7115,-1.7113,-1.7072,-1.7036,-1.7057,-1.7033,-1.6991,-1.7019,-1.6988,-1.6989,-1.7027,-1.7055,-1.7062,-1.7068,-1.7147,-1.7163,-1.7177,0,0,0,0,0,0,-1.7185,-1.7141,-1.7112,-1.7149,-1.7137,-1.7101,-1.7126,-1.709,-1.7088,-1.7081,-1.7031,-1.7025,-1.7061,-1.7047,-1.7013,-1.7082,-1.703,-1.7037,-1.709,-1.7105,-1.7117,-1.712,-1.6943,0,0,0,0,0,-1.7208,-1.7217,-1.7179,-1.7215,-1.721,-1.717,-1.7172,-1.7141,-1.7127,-1.7121,-1.7099,-1.7087,-1.7094,-1.7099,-1.7102,-1.7151,-1.7145,-1.7177,-1.719,-1.72,-1.7206,-1.7234,-1.7248,-1.7092,-1.7092,-1.7092,0,0,-1.7255,-1.7232,-1.7241,-1.7232,-1.7218,-1.7231,-1.7166,-1.7181,-1.7191,-1.7124,-1.7149,-1.7133,-1.7117,-1.7157,-1.7173,-1.7146,-1.7249,-1.7208,-1.7216,-1.7217,-1.7242,-1.7256,-1.727,-1.7096,-1.7096,-1.7095,0,0,-1.7348,-1.7331,-1.736,-1.7349,-1.733,-1.7303,-1.7311,-1.7281,-1.7268,-1.7293,-1.7244,-1.7255,-1.7266,-1.7258,-1.7255,-1.7349,-1.7312,-1.7352,-1.7416,-1.7443,-1.7455,-1.7466,-1.7501,-1.7514,-1.7359,-1.7359,-1.7359,0,-1.741,-1.7425,-1.738,-1.74,-1.7398,-1.7338,-1.7369,-1.736,-1.7344,-1.7345,-1.7315,-1.733,-1.7315,-1.7353,-1.7376,-1.7375,-1.7384,-1.7354,-1.7457,-1.7467,-1.7477,-1.7509,-1.7523,-1.7364,-1.7363,-1.7363,-1.7362,0,-1.7503,-1.7515,-1.7541,-1.7527,-1.7528,-1.7553,-1.7514,-1.7521,-1.7492,-1.7469,-1.7497,-1.7477,-1.7477,-1.7484,-1.7455,-1.7518,-1.7502,-1.7466,-1.7412,-1.7497,-1.7527,-1.754,-1.7371,-1.7369,-1.7368,-1.7367,0,0,-1.7646,-1.7608,-1.7619,-1.7613,-1.7589,-1.7598,-1.7622,-1.7621,-1.7629,-1.7621,-1.7641,-1.7654,-1.762,-1.7617,-1.7588,-1.7611,-1.7689,-1.7572,-1.7571,-1.7595,-1.7761,-1.7789,-1.7804,-1.7665,-1.7667,-1.7669,-1.7762,0,-1.7734,-1.777,-1.7732,-1.7778,-1.7789,-1.7735,-1.7756,-1.7745,-1.7726,-1.7734,-1.7713,-1.7723,-1.7677,-1.7676,-1.7697,-1.7675,-1.7722,-1.7668,-1.7684,-1.7686,-1.769,-1.7819,-1.7848,-1.7937,-1.7774,-1.7776,-1.7777,0,-1.784,-1.7837,-1.7884,-1.786,-1.7863,-1.7883,-1.788,-1.7889,-1.7877,-1.7861,-1.7859,-1.7824,-1.7848,-1.7797,-1.783,-1.7795,-1.78,-1.7791,-1.7793,-1.7793,-1.7736,-1.7823,-1.7964,-1.7978,-1.7795,-1.7793,-1.7792,0,-1.7941,-1.7949,-1.7978,-1.7975,-1.7947,-1.7962,-1.7952,-1.7937,-1.794,-1.7939,-1.7941,-1.7943,-1.7944,-1.7948,-1.7915,-1.788,-1.7954,-1.7899,-1.7943,-1.7944,-1.796,-1.7959,-1.8104,-1.7963,-1.7963,-1.7963,-1.7962,0,-1.8043,-1.8074,-1.8024,-1.8042,-1.8076,-1.8033,-1.8069,-1.8053,-1.8041,-1.8056,-1.801,-1.8026,-1.7982,-1.7994,-1.7969,-1.8002,-1.8002,-1.7992,-1.7985,-1.7996,-1.7997,-1.7998,-1.7991,-1.7966,-1.7965,-1.7965,-1.7964,0,-1.8161,-1.8128,-1.8157,-1.8129,-1.8123,-1.8149,-1.8126,-1.8143,-1.8122,-1.8142,-1.8145,-1.8112,-1.8124,-1.8092,-1.8099,-1.8082,-1.813,-1.8113,-1.8134,-1.8129,-1.8175,-1.8171,-1.8325,-1.8344,-1.8191,-1.8192,-1.8194,0,-1.8228,-1.825,-1.8225,-1.8232,-1.8224,-1.8236,-1.8239,-1.8199,-1.8205,-1.8194,-1.8213,-1.8222,-1.8226,-1.8249,-1.8227,-1.8233,-1.8216,-1.827,-1.8217,-1.8228,-1.8218,-1.8217,-1.822,-1.8281,-1.8283,-1.8284,-1.8285,0,-1.835,-1.8334,-1.8339,-1.834,-1.8345,-1.8344,-1.834,-1.8349,-1.8307,-1.8316,-1.8328,-1.8332,-1.834,-1.835,-1.8352,-1.8343,-1.8309,-1.8303,-1.8313,-1.8325,-1.8336,-1.8332,-1.8164,-1.8299,-1.8297,-1.8296,-1.8296,-1.8295,-1.8445,-1.8463,-1.8449,-1.8458,-1.8451,-1.8449,-1.8464,-1.8445,-1.8454,-1.8457,-1.8434,-1.8452,-1.8442,-1.8441,-1.8436,-1.8451,-1.8427,-1.8442,-1.8446,-1.845,-1.8458,-1.8334,-1.8451,-1.8451,-1.8451,-1.845,-1.845,0,-1.8566,-1.8555,-1.8563,-1.8559,-1.8567,-1.8533,-1.8528,-1.8537,-1.8553,-1.8547,-1.8553,-1.8568,-1.8579,-1.8558,-1.8566,-1.8582,-1.8566,-1.8585,-1.8583,-1.8583,-1.8479,-1.8469,-1.8598,-1.8598,-1.8598,-1.8598,-1.8598,-1.8598,-1.863,-1.866,-1.8642,-1.867,-1.8659,-1.8675,-1.8675,-1.8674,-1.8669,-1.8688,-1.8696,-1.8683,-1.8672,-1.8679,-1.8688,-1.8682,-1.8687,-1.8712,-1.8701,-1.8604,-1.8589,-1.8576,-1.8566,-1.8713,-1.8713,-1.8803,-1.8804,-1.8804]},{"header":{"parameterUnit":"m.s-1","parameterCategory":1,"la1":30.2991,"la2":30.254,"lo1":-89.0895,"lo2":-89.0444,"dy":0.0017,"dx":0.0017,"nx":28,"ny":28,"refTime":"2024-04-13T03:00:00:Z","depth":0,"parameterNumber":3,"parameterNumberName":"V-component_of_WINDS"},"data":[0,0,0,0,0,0,0,0,0,0,0,0,0,0,0,0,0,0,0,0,0,0,0,0,0,0,0,0,0,0,0,0,0,0,0,0,0,0,0,0,0,0,0,0,0,0,0,0,0,0,0,0,0,0,0,0,0,0,2.5121,2.5121,0,2.5138,2.5139,2.5139,2.5139,2.5138,2.5138,2.5138,2.5154,2.5155,2.5156,0,0,0,0,0,0,0,0,0,0,0,0,0,2.5088,2.5088,2.5121,2.5121,2.5122,2.5138,2.5139,2.5139,2.5139,2.5138,2.5138,2.5138,2.5154,2.5155,2.5156,0,0,0,0,0,0,0,0,0,0,0,0,0,2.5103,2.5089,2.5121,2.5124,2.5124,2.5138,2.5139,2.5139,2.5139,2.5138,2.5138,2.5138,2.5154,2.5155,2.5156,2.5168,0,0,2.5159,2.5159,0,0,0,0,0,0,0,0,2.5102,2.5105,2.5123,2.5123,2.5124,2.5136,2.5133,2.5149,2.5139,2.5133,2.5138,2.5138,2.5148,2.515,2.5154,2.5169,2.517,2.5159,2.5159,2.516,2.516,0,0,0,0,0,0,0,2.5101,2.5104,2.5128,2.5123,2.5124,2.5124,2.5126,2.5136,2.5142,2.5134,2.5134,2.5136,2.5149,2.5153,2.5154,2.517,2.5159,2.516,2.516,2.5161,2.5198,2.5198,0,0,0,0,0,0,2.51,2.5103,2.5127,2.5128,2.5112,2.5125,2.5127,2.5132,2.5142,2.5143,2.5136,2.5136,2.5151,2.5153,2.5155,2.517,2.516,2.5161,2.5161,2.5197,2.5198,2.5198,0,0,0,0,0,0,2.5099,2.5102,2.5127,2.5116,2.5119,2.5126,2.5132,2.5133,2.5137,2.5144,2.5145,2.5139,2.5151,2.5153,2.5165,2.5171,2.5161,2.5162,2.5197,2.5197,2.5198,2.5202,0,0,0,0,0,0,2.5098,2.5102,2.5107,2.5116,2.5119,2.5137,2.5132,2.5134,2.5139,2.5139,2.5147,2.5148,2.5151,2.5164,2.5166,2.5172,2.5163,2.5196,2.5197,2.5198,2.5201,2.5202,2.5203,0,0,0,0,0,2.5097,2.5106,2.5107,2.511,2.5126,2.5137,2.5139,2.5142,2.5139,2.5144,2.5149,2.5148,2.517,2.5165,2.5168,2.5174,2.5196,2.5197,2.5198,2.52,2.5202,2.5203,0,0,0,0,0,0,2.5097,2.5108,2.5108,2.5121,2.5128,2.5137,2.5143,2.5144,2.5152,2.5151,2.5155,2.5157,2.5168,2.5173,2.5167,2.5187,2.5183,2.5184,2.5184,2.5185,2.5187,2.5185,2.5163,0,0,0,0,0,2.5098,2.5107,2.5116,2.5126,2.513,2.5136,2.5141,2.5144,2.5151,2.5154,2.5159,2.5167,2.5175,2.5181,2.5189,2.5202,2.5204,2.5208,2.5209,2.521,2.5211,2.5219,2.522,2.5201,2.5201,2.5201,0,0,2.5101,2.5108,2.5113,2.5127,2.5132,2.5142,2.5139,2.5148,2.5155,2.5155,2.5167,2.5171,2.518,2.5192,2.5198,2.5196,2.5217,2.5211,2.5212,2.5212,2.522,2.5222,2.5223,2.5202,2.5202,2.5201,0,0,2.5111,2.5117,2.5127,2.5133,2.5143,2.5147,2.515,2.5159,2.5162,2.5174,2.5175,2.5183,2.5198,2.5204,2.5209,2.5223,2.5222,2.5226,2.5231,2.5239,2.5241,2.5242,2.5247,2.5249,2.5227,2.5227,2.5227,0,2.5113,2.5127,2.5132,2.5142,2.5147,2.515,2.5159,2.5165,2.5177,2.5181,2.5179,2.5198,2.5203,2.5218,2.5222,2.5226,2.5228,2.5224,2.524,2.5241,2.5243,2.5247,2.5249,2.5227,2.5227,2.5227,2.5227,0,2.5129,2.5139,2.5146,2.5158,2.5165,2.5174,2.5181,2.5187,2.5189,2.5194,2.5206,2.5214,2.5224,2.5227,2.5229,2.5242,2.5241,2.5239,2.5235,2.5245,2.5249,2.5251,2.5228,2.5227,2.5227,2.5227,0,0,2.5138,2.5154,2.5156,2.5162,2.5173,2.5181,2.5191,2.5202,2.5207,2.5216,2.5224,2.5238,2.5237,2.5242,2.5245,2.5252,2.5263,2.5249,2.525,2.5251,2.5278,2.5278,2.5281,2.5263,2.5263,2.5264,2.5277,0,2.5148,2.5167,2.5172,2.5188,2.5197,2.52,2.5209,2.5218,2.5223,2.5231,2.5236,2.5246,2.5244,2.5248,2.5254,2.526,2.5268,2.5259,2.5271,2.5271,2.5268,2.5283,2.5283,2.5295,2.5279,2.5279,2.528,0,2.5163,2.5173,2.519,2.5201,2.5205,2.5213,2.5224,2.5232,2.5242,2.5245,2.5252,2.5255,2.5266,2.5262,2.5277,2.527,2.5276,2.5279,2.528,2.528,2.5275,2.5283,2.5299,2.5301,2.5282,2.5282,2.5282,0,2.5168,2.5185,2.5197,2.5202,2.5216,2.5222,2.5228,2.5237,2.5243,2.5253,2.5257,2.5267,2.5273,2.5281,2.5286,2.5283,2.5301,2.5297,2.5304,2.5303,2.5306,2.5306,2.5323,2.5311,2.5311,2.5311,2.5311,0,2.5179,2.5189,2.52,2.5207,2.5219,2.5225,2.5237,2.5243,2.5251,2.526,2.5263,2.5271,2.5278,2.5287,2.5291,2.5303,2.5306,2.5309,2.5309,2.5308,2.5307,2.5311,2.531,2.5311,2.5311,2.5311,2.5311,0,2.5185,2.5193,2.5206,2.5219,2.5222,2.523,2.5241,2.5248,2.5254,2.5265,2.5268,2.5277,2.5288,2.5295,2.5308,2.5311,2.5324,2.5325,2.5321,2.5321,2.5327,2.5327,2.5346,2.5349,2.5336,2.5336,2.5336,0,2.5191,2.5199,2.5213,2.522,2.5226,2.5236,2.5243,2.525,2.5257,2.527,2.5276,2.5287,2.5296,2.5314,2.5321,2.5332,2.5333,2.5339,2.5334,2.5332,2.5332,2.5331,2.5332,2.5339,2.5339,2.534,2.534,0,2.5201,2.5205,2.5215,2.5228,2.5236,2.5246,2.5255,2.526,2.5269,2.5277,2.5288,2.5296,2.531,2.5322,2.5333,2.5339,2.5341,2.5341,2.5343,2.5341,2.5339,2.534,2.5323,2.5341,2.534,2.534,2.534,2.534,2.5208,2.5215,2.5227,2.5238,2.5246,2.5255,2.5263,2.5271,2.5281,2.5294,2.5297,2.531,2.532,2.5336,2.5342,2.5352,2.535,2.5353,2.5354,2.5354,2.5354,2.5338,2.5354,2.5354,2.5354,2.5354,2.5354,0,2.5218,2.5226,2.5237,2.525,2.5259,2.5262,2.5273,2.528,2.5291,2.5301,2.531,2.5324,2.5335,2.5344,2.5356,2.5362,2.5363,2.5365,2.5364,2.5365,2.5355,2.5352,2.5364,2.5364,2.5364,2.5364,2.5364,2.5364,2.5224,2.5238,2.5243,2.526,2.5268,2.5281,2.5287,2.5295,2.5303,2.5319,2.5328,2.5334,2.5344,2.5356,2.5367,2.5369,2.5373,2.5374,2.5377,2.5367,2.5366,2.5365,2.5362,2.5375,2.5375,2.5386,2.5386,2.5386]}]]